Hourly Data Report for July 31, 2021

KUGLUKTUK A
NUNAVUT
Current Station Operator: NAVCAN

67°49'00.000" N
115°08'38.000" W
22.60 m
2300903
71938
YCO

Download Data

Hourly Data (July 2021)
Hourly Data Report for July 31, 2021
TIME
LST
Temp Definition
°C
Dew Point Definition
°C
Rel Hum Definition
%
Precip. Amount Definition
mm

Wind Dir Definition
10's deg

Wind Spd Definition
km/h
Visibility Definition
km
Stn Press Definition
kPa
Hmdx Definition


Wind Chill Definition


Weather Definition


00:00 12.8 10.7 87   35 5 24.1 101.11     LegendNANA
01:00 12.1 10.5 90   23 9 24.1 101.08     LegendNANA
02:00 11.6 10.6 93   36 2 24.1 101.03     Cloudy
03:00 15.5 11.6 78   22 16 24.1 101.03     LegendNANA
04:00 15.6 11.4 76   22 17 24.1 101.01     LegendNANA
05:00 15.9 11.3 74   24 21 19.3 101.03     Cloudy
06:00 15.5 12.7 83   19 20 19.3 101.00     LegendNANA
07:00 16.4 12.7 79   25 14 24.1 101.00     LegendNANA
08:00 17.4 13.1 76   24 16 24.1 101.00     Mostly Cloudy
09:00 19.4 12.9 66   25 19 24.1 100.99     LegendNANA
10:00 19.1 12.9 67   27 23 24.1 101.00     LegendNANA
11:00 19.2 13.5 69   26 20 24.1 100.99     Mostly Cloudy
12:00 20.2 14.1 68   27 14 24.1 101.00     LegendNANA
13:00 19.9 14.0 68   32 10 24.1 100.98     LegendNANA
14:00 20.7 14.6 67   33 16 24.1 101.01     Mostly Cloudy
15:00 21.9 14.4 62   31 5 24.1 101.00 26   LegendNANA
16:00 19.9 13.4 65   34 7 24.1 101.03     LegendNANA
17:00 21.4 13.1 59   35 6 24.1 101.03     Mostly Cloudy
18:00 23.1 13.1 53   33 11 24.1 101.01 26   LegendNANA
19:00 21.0 13.1 60   31 13 24.1 101.01     LegendNANA
20:00 17.2 12.5 74   3 18 24.1 101.09     Cloudy
21:00 17.1 12.2 73   10 10 24.1 101.13     LegendNANA
22:00 15.6 12.7 83   14 9 24.1 101.13     LegendNANA
23:00 15.8 12.0 78   12 9 24.1 101.15     Cloudy

Notes on Data Quality.

Legend

  • E = Estimated
  • M = Missing
  • NA = Not Available*
  • [empty] = Indicates an unobserved value
Date modified: